Tracking 19969 objects as of 12-Nov-2019
Live streaming from Space Station
objects crossing your sky now
Track the group of recently launched Starlink satellites

DMSP 5D-2 F11 DEB

Track DMSP 5D-2 F11 DEB now!
10-day predictions


NORAD ID: 29068
Int'l Code: 1991-082BP
Perigee: 676.8 km
Apogee: 754.1 km
Inclination: 98.9 °
Period: 98.9 minutes
Semi major axis: 7086 km
RCS: 0.0124 m2 (small)
Launch date: November 28, 1991
Source: United States (US)
Launch site: AIR FORCE WESTERN TEST RANGE (AFWTR)

Note: This is SATELLITE DEBRIS
aabbcc
Your satellite tracking list
Your tracking list is empty




NASA's NSSDC Master Catalog

Two Line Element Set (TLE):
1 29068U 91082BP  19315.81753740  .00004731  00000-0  10810-2 0  9996
2 29068  98.8944  88.0119 0054575 181.5130 178.5908 14.55321826722568
Source of the keplerian elements: AFSPC